Date,TemperatureHighF,TemperatureAvgF,TemperatureLowF,DewpointHighF,DewpointAvgF,DewpointLowF,HumidityHigh,HumidityAvg,HumidityLow,PressureMaxIn,PressureMinIn,WindSpeedMaxMPH,WindSpeedAvgMPH,GustSpeedMaxMPH,PrecipitationSumIn
2014-1-1,20.5,17.4,13.9,15.7,12.9,9.6,87,83,79,29.44,29.36,13,4,13,0.00
2014-1-2,16.2,10.5,0.4,9.8,4.6,-4.8,83,77,71,29.69,29.40,12,3,12,0.00
2014-1-3,24.3,12.2,-3.4,15.3,5.4,-8.4,81,74,63,29.67,29.08,17,4,17,0.00
2014-1-4,39.2,27.0,19.1,27.6,20.0,15.3,87,75,63,29.26,29.06,12,3,12,0.04
2014-1-5,19.1,9.6,-5.9,15.8,4.5,-13.9,88,80,65,29.53,29.23,14,6,16,0.00
2014-1-6,-2.3,-8.5,-14.0,-12.6,-17.3,-22.5,69,65,59,29.62,29.53,12,5,12,0.00
2014-1-7,20.9,3.7,-9.9,9.4,-4.5,-17.4,75,69,59,29.58,29.38,9,2,9,0.00
2014-1-8,18.2,10.9,3.1,9.7,3.6,-3.2,79,72,65,29.70,29.46,8,2,8,0.00
2014-1-9,29.5,21.1,10.6,26.1,15.2,3.2,87,78,69,29.70,29.34,9,3,9,0.00
2014-1-10,40.7,35.1,29.5,38.9,32.7,26.1,94,91,87,29.34,28.75,11,4,11,0.68
2014-1-11,41.9,35.0,29.0,35.9,30.8,25.2,94,85,72,29.13,28.74,9,4,11,0.00
2014-1-12,50.6,37.4,24.1,37.5,30.7,21.1,91,78,60,29.12,28.81,13,4,13,0.02
2014-1-13,45.4,35.4,27.0,36.8,29.9,23.2,87,80,70,29.07,28.81,11,2,11,0.00
2014-1-14,38.2,29.6,22.0,33.0,23.4,14.9,89,78,64,29.28,28.89,15,4,15,0.04
2014-1-15,24.3,19.5,13.3,16.8,12.0,7.1,78,72,65,29.41,29.07,8,2,8,0.00
2014-1-16,41.9,29.8,12.1,33.1,23.1,5.0,85,76,65,29.10,28.82,14,4,14,0.00
2014-1-17,17.1,12.0,6.8,9.0,5.1,0.5,78,73,69,29.28,29.09,10,4,10,0.00
2014-1-18,36.5,22.1,9.5,30.0,16.7,4.5,87,79,69,29.23,28.81,16,3,16,0.03
2014-1-19,45.2,31.2,14.2,33.0,23.4,10.0,84,74,61,29.21,28.87,13,3,13,0.01
2014-1-20,42.8,34.2,16.0,34.5,28.5,12.8,90,80,69,29.32,28.95,11,2,11,0.00
2014-1-21,15.8,7.9,1.4,12.4,0.8,-4.9,87,73,61,29.62,29.32,12,2,12,0.00
2014-1-22,25.6,13.9,0.4,16.7,6.6,-7.6,79,73,62,29.60,29.22,13,4,13,0.02
2014-1-23,8.3,0.1,-5.6,-3.1,-8.2,-12.4,74,68,59,29.91,29.60,10,3,10,0.01
2014-1-24,33.8,18.5,-2.7,21.2,7.1,-9.4,75,62,50,29.82,28.82,16,4,16,0.00
2014-1-25,35.8,24.8,12.4,31.7,11.8,-0.8,85,58,41,29.18,28.79,13,4,13,0.00
2014-1-26,47.0,32.0,8.6,32.6,20.5,-3.7,85,63,51,29.30,28.68,16,6,16,0.02
2014-1-27,8.6,3.3,-2.0,-3.6,-6.9,-10.3,69,62,55,29.71,29.30,12,4,12,0.00
2014-1-28,16.7,5.3,-5.0,1.5,-4.9,-12.0,74,63,50,29.71,29.50,9,2,9,0.00
2014-1-29,33.3,18.8,3.2,15.4,5.9,-4.7,73,58,44,29.51,29.17,11,3,11,0.00
2014-1-30,35.8,28.5,19.3,27.8,17.5,10.2,80,64,48,29.24,28.90,17,4,17,0.00
2014-1-31,19.3,16.8,13.9,14.2,11.3,7.8,84,79,76,29.40,29.23,8,2,8,0.00
2014-2-1,25.9,22.0,18.4,20.9,18.0,14.2,88,85,80,29.38,29.05,7,2,7,0.00
2014-2-2,20.2,8.9,-2.0,15.8,1.6,-8.2,84,72,61,29.58,29.38,11,2,11,0.00
2014-2-3,22.3,4.8,-12.8,11.2,-3.6,-18.3,80,69,54,29.62,29.54,6,1,6,0.01
2014-2-4,21.6,14.3,4.0,14.0,8.1,-3.4,88,76,61,29.58,29.30,13,3,13,0.00
2014-2-5,18.0,12.8,0.5,14.4,7.5,-5.7,89,79,70,29.75,29.27,13,4,13,0.00
2014-2-6,10.4,0.2,-9.0,0.3,-7.2,-14.0,79,71,61,29.79,29.66,8,2,8,0.00
2014-2-7,19.1,6.8,-6.8,6.8,-2.0,-12.8,76,67,56,29.67,29.52,7,2,7,0.00
2014-2-8,32.2,20.0,11.5,21.8,12.5,3.4,78,72,63,29.52,29.32,6,2,6,0.02
2014-2-9,23.4,14.1,0.4,15.8,7.3,-6.7,84,74,61,29.60,29.34,6,2,6,0.00
2014-2-10,8.6,-1.1,-8.6,-1.2,-8.6,-14.2,79,70,61,29.72,29.60,6,2,6,0.00
2014-2-11,17.8,1.4,-10.4,6.7,-6.7,-16.8,78,69,58,29.74,29.53,5,1,5,0.00
2014-2-12,36.4,17.5,-0.5,19.6,6.8,-8.3,74,63,46,29.55,29.21,7,2,7,0.01
2014-2-13,40.0,26.7,9.7,29.1,18.0,2.2,78,70,62,29.21,28.85,14,4,14,0.02
2014-2-14,22.0,15.8,5.9,14.9,9.4,1.1,83,76,67,29.29,28.93,8,3,8,0.00
2014-2-15,28.6,13.5,-1.1,16.9,6.8,-5.8,82,75,59,29.33,29.15,9,2,9,0.00
2014-2-16,31.5,24.1,20.0,20.5,16.7,13.9,83,73,61,29.46,29.16,10,3,10,0.13
2014-2-17,38.2,30.2,21.1,32.6,25.0,15.1,87,81,74,29.36,28.99,14,4,14,0.11
2014-2-18,55.8,41.2,27.2,36.6,29.2,22.7,85,64,41,29.18,28.88,12,3,12,0.30
2014-2-19,52.2,39.4,29.5,36.5,30.5,25.3,85,71,51,29.22,28.93,15,3,15,0.15
2014-2-20,51.8,37.6,34.2,48.7,34.0,28.9,93,87,79,29.00,28.38,18,6,18,0.78
2014-2-21,43.7,33.7,26.3,29.2,24.2,18.7,82,69,54,29.12,28.76,16,5,16,0.00
2014-2-22,36.7,29.6,22.3,28.3,22.4,17.7,88,75,57,29.34,29.12,9,2,9,0.00
2014-2-23,30.1,23.3,19.6,18.4,13.5,10.8,79,66,55,29.55,29.34,8,3,10,0.00
2014-2-24,31.1,22.8,16.9,16.8,13.0,10.0,83,66,53,29.60,29.47,6,1,6,0.00
2014-2-25,22.0,14.9,9.0,13.8,6.7,-0.3,85,70,54,29.55,29.49,8,3,11,0.02
2014-2-26,22.3,12.2,-1.8,11.6,1.3,-8.6,72,62,51,29.57,29.03,13,4,13,0.00
2014-2-27,20.9,10.7,4.5,12.1,-2.1,-6.7,70,56,47,29.40,29.04,12,3,12,0.00
2014-2-28,44.6,26.2,5.9,25.7,13.6,-3.2,74,60,47,29.34,29.11,14,4,14,0.00
2014-3-1,35.6,22.1,9.7,23.9,15.5,5.4,84,76,60,29.57,29.17,12,4,12,0.00
2014-3-2,10.1,5.1,-2.3,5.4,-3.6,-11.3,84,68,54,29.67,29.54,13,4,13,0.00
2014-3-3,16.6,4.6,-8.3,3.8,-5.6,-16.4,69,62,53,29.73,29.51,9,2,9,0.02
2014-3-4,39.4,24.2,10.1,21.2,12.4,3.1,76,62,42,29.54,29.31,8,2,8,0.07
2014-3-5,32.9,24.7,21.2,21.2,17.2,12.4,83,73,57,29.57,29.36,12,4,12,0.00
2014-3-6,44.1,28.9,15.7,29.5,20.7,11.6,85,72,54,29.55,29.25,8,2,8,0.00
2014-3-7,58.1,40.5,25.2,38.5,30.2,20.0,86,69,46,29.25,29.08,5,2,7,0.00
2014-3-8,36.4,33.3,28.3,31.6,29.7,24.3,90,87,80,29.50,29.23,8,2,8,0.00
2014-3-9,51.7,37.6,21.1,38.0,29.5,17.6,90,74,59,29.51,29.09,10,2,10,0.00
2014-3-10,63.0,49.2,41.0,45.6,37.8,31.5,77,65,53,29.09,28.91,12,3,12,0.00
2014-3-11,61.2,43.4,32.9,49.0,37.1,30.3,90,79,63,28.95,28.78,14,3,14,0.10
2014-3-12,37.3,32.2,23.6,30.8,25.8,17.5,93,78,62,29.34,28.94,13,3,13,0.44
2014-3-13,55.4,38.2,18.7,40.3,29.2,14.9,88,71,56,29.34,29.05,10,2,10,0.16
2014-3-14,59.4,47.4,35.5,41.2,33.8,26.8,75,60,43,29.18,28.90,11,4,11,0.00
2014-3-15,56.2,40.6,30.6,36.6,30.0,24.9,84,67,46,29.33,29.18,13,3,13,0.00
2014-3-16,34.6,26.4,16.0,28.6,18.8,9.9,87,73,59,29.50,29.32,15,5,15,0.01
2014-3-17,47.0,29.3,11.5,28.7,19.0,6.9,84,67,45,29.33,28.95,10,3,10,0.00
2014-3-18,58.3,44.6,30.8,42.7,34.2,21.8,84,67,54,28.98,28.76,19,6,19,0.00
2014-3-19,47.5,39.3,28.4,40.5,33.0,22.6,89,78,70,29.30,28.76,12,4,12,0.05
2014-3-20,56.9,41.5,28.4,38.2,31.3,23.0,83,68,47,29.29,29.13,8,2,8,0.00
2014-3-21,66.1,47.5,31.5,45.7,35.8,26.6,84,66,42,29.24,28.95,11,3,11,0.00
2014-3-22,40.7,34.2,27.2,30.8,24.1,15.6,80,67,46,29.60,29.24,13,3,13,0.00
2014-3-23,36.0,26.8,20.0,16.7,13.3,11.2,73,58,40,29.69,29.56,11,2,11,0.00
2014-3-24,44.1,31.9,21.8,24.3,18.8,12.6,76,59,42,29.59,29.33,7,1,7,0.00
2014-3-25,33.5,26.5,17.6,26.5,15.9,8.6,85,65,45,29.49,29.32,10,2,10,0.00
2014-3-26,51.1,33.8,14.6,27.3,18.9,8.4,79,57,34,29.50,29.11,15,5,15,0.00
2014-3-27,53.5,44.6,36.5,49.3,38.9,27.4,88,80,58,29.11,28.63,16,6,16,0.32
2014-3-28,43.7,39.4,36.5,38.3,34.2,32.1,86,82,73,29.36,28.80,15,3,15,0.00
2014-3-29,49.0,38.8,31.9,36.5,32.2,26.6,87,78,60,29.44,29.32,9,2,9,0.00
2014-3-30,68.0,47.7,28.4,45.7,36.0,24.8,89,67,41,29.44,29.16,14,4,14,0.00
2014-3-31,69.8,56.3,45.0,47.2,41.8,36.6,78,60,41,29.17,28.85,22,7,22,0.00
2014-4-1,54.9,42.9,30.1,37.6,28.3,20.2,70,57,43,29.29,28.98,13,4,13,0.00
2014-4-2,48.2,43.6,40.0,40.1,35.2,29.8,83,72,66,29.29,29.07,12,4,12,0.01
2014-4-3,52.4,46.0,40.1,49.2,43.5,38.0,93,91,84,29.08,28.76,12,4,12,0.99
2014-4-4,51.1,40.8,34.9,49.2,34.2,29.6,94,78,63,29.31,28.71,16,6,16,0.01
2014-4-5,58.9,44.0,30.4,40.1,32.5,25.3,84,65,47,29.43,29.30,7,1,7,0.00
2014-4-6,65.5,48.0,34.0,45.0,35.1,28.5,83,63,41,29.31,29.08,10,2,10,0.00
2014-4-7,62.1,49.7,40.5,43.6,37.1,32.8,78,64,39,29.08,28.85,11,2,11,0.00
2014-4-8,62.1,50.6,40.0,41.9,35.9,29.8,83,60,34,29.18,28.92,13,3,13,0.00
2014-4-9,69.5,52.7,34.2,41.0,35.2,28.9,82,55,33,29.27,29.02,9,3,10,0.00
2014-4-10,66.8,58.1,46.8,46.9,37.2,27.9,53,46,31,29.19,28.90,11,3,11,0.00
2014-4-11,76.9,57.9,37.1,44.1,33.9,26.6,74,44,23,29.26,29.16,8,1,8,0.00
2014-4-12,85.9,69.2,54.0,61.8,50.8,32.3,69,53,42,29.18,28.82,14,5,14,0.00
2014-4-13,68.8,63.3,52.6,63.4,56.4,48.4,88,78,65,28.94,28.60,17,3,17,0.51
2014-4-14,52.6,37.9,30.4,48.4,33.6,23.6,91,85,75,29.26,28.65,15,4,15,0.21
2014-4-15,47.5,35.9,25.2,28.2,22.6,18.6,77,60,40,29.38,29.26,8,2,8,0.00
2014-4-16,61.0,46.7,32.2,38.2,30.6,21.6,72,55,38,29.35,29.15,18,7,18,0.00
2014-4-17,58.3,48.2,41.2,41.8,35.5,29.3,74,62,52,29.46,29.22,11,2,11,0.00
2014-4-18,70.0,52.1,34.2,44.4,35.7,29.8,85,57,32,29.53,29.41,7,1,7,0.00
2014-4-19,80.3,59.6,37.8,51.9,39.6,28.7,71,50,32,29.49,29.32,10,4,10,0.00
2014-4-20,86.8,68.5,51.3,57.6,47.8,39.3,66,49,34,29.35,29.20,9,3,9,0.00
2014-4-21,72.7,64.0,57.4,60.8,53.1,45.0,88,68,51,29.20,29.07,8,2,8,0.09
2014-4-22,65.5,54.4,43.9,47.2,36.8,29.9,79,54,30,29.25,29.12,11,2,11,0.00
2014-4-23,65.5,51.0,38.0,41.9,34.7,28.6,70,55,38,29.35,29.09,10,4,10,0.02
2014-4-24,67.3,56.5,47.9,53.7,43.9,34.0,91,64,44,29.10,28.75,16,4,16,0.30
2014-4-25,77.6,61.0,42.7,53.4,46.9,39.7,92,64,35,29.08,28.87,10,2,10,0.00
2014-4-26,87.3,66.5,47.9,56.4,46.3,35.1,77,51,30,29.05,28.89,17,2,17,0.00
2014-4-27,83.2,61.2,47.3,63.8,50.5,34.7,90,69,46,29.04,28.64,15,6,15,0.96
2014-4-28,81.0,63.5,49.9,64.4,56.2,43.6,91,78,55,28.76,28.52,15,5,15,0.40
2014-4-29,61.7,52.6,47.9,51.4,46.3,43.8,88,79,66,28.86,28.59,8,2,8,0.06
2014-4-30,56.0,46.3,40.7,44.6,39.4,35.6,89,77,61,29.03,28.86,11,3,11,0.04
2014-5-1,53.1,46.7,42.5,44.2,40.6,38.3,86,80,69,29.10,28.95,10,3,10,0.01
2014-5-2,65.9,54.1,44.8,48.2,43.4,39.9,86,69,51,29.10,28.80,9,3,9,0.00
2014-5-3,75.2,61.3,46.4,47.2,43.2,39.2,76,54,33,29.13,28.71,8,2,9,0.00
2014-5-4,74.0,61.9,46.8,48.8,42.6,33.5,80,50,39,29.23,28.75,11,4,11,0.00
2014-5-5,73.4,59.3,45.7,48.9,38.7,25.4,57,47,40,29.12,28.35,10,4,10,0.00
2014-5-6,85.0,65.4,45.7,59.7,48.4,36.9,72,56,39,28.93,28.25,14,5,14,0.00
2014-5-7,90.2,76.4,65.7,68.7,61.9,56.8,76,62,43,28.95,28.23,11,3,11,0.00
2014-5-8,91.1,75.3,66.4,70.3,64.0,60.1,82,69,48,29.02,28.46,10,3,10,0.32
2014-5-9,76.0,67.7,56.9,61.8,55.2,45.1,88,66,43,28.54,28.33,8,3,8,0.02
2014-5-10,85.1,70.1,49.0,60.0,52.2,44.3,86,56,33,28.52,28.16,11,3,11,0.00
2014-5-11,90.4,72.6,57.1,73.0,62.6,52.2,86,72,54,28.66,28.08,9,3,9,0.01
2014-5-12,92.5,77.8,66.6,72.8,67.5,61.5,88,72,49,28.83,28.59,10,3,10,1.07
2014-5-13,66.6,54.4,47.7,62.9,48.7,42.5,89,81,69,29.16,28.75,9,2,9,0.09
2014-5-14,54.4,49.3,42.7,43.4,41.8,38.9,88,76,62,29.21,28.85,9,2,9,0.00
2014-5-15,66.1,51.3,41.4,51.3,43.3,36.5,88,75,57,29.00,28.86,7,1,7,0.03
2014-5-16,55.4,46.2,41.2,43.1,38.7,35.4,88,76,52,29.01,28.83,10,2,10,0.02
2014-5-17,73.1,52.0,37.3,46.7,38.5,33.7,89,63,35,29.14,28.67,6,1,6,0.00
2014-5-18,46.3,43.9,42.5,39.5,35.7,34.3,77,73,70,29.10,28.38,2,1,2,0.00
2014-5-22,59.9,59.7,59.4,48.4,48.2,48.1,66,66,65,28.46,28.45,0,0,0,0.00
2014-5-31,94.0,94.0,94.0,73.6,73.6,73.6,52,52,52,28.44,28.44,4,4,4,0.00
2014-6-2,89.3,79.3,71.6,69.6,64.9,62.5,74,62,50,29.25,29.17,4,1,5,0.00
2014-6-3,93.6,77.7,65.9,69.0,62.9,58.3,88,63,42,29.34,29.16,9,1,9,0.40
2014-6-4,81.0,70.7,64.1,69.7,63.7,58.7,91,79,64,29.23,28.90,9,2,9,2.01
2014-6-5,86.0,68.9,56.5,64.9,58.9,53.5,91,72,47,29.31,29.18,10,2,10,0.00
2014-6-6,98.5,73.6,56.5,71.7,62.4,53.0,91,70,40,29.31,29.21,5,1,5,0.00
2014-6-7,81.4,67.1,61.0,69.1,61.8,57.9,91,84,63,29.28,29.05,14,2,14,1.73
2014-6-8,78.7,67.2,58.3,65.3,60.3,55.7,93,79,61,29.34,29.18,7,1,7,0.02
2014-6-9,85.3,70.0,56.9,66.9,58.6,48.6,87,68,48,29.32,29.14,7,1,7,0.00
2014-6-10,66.8,63.4,60.5,62.2,59.9,57.1,93,88,77,29.15,29.05,10,2,10,0.52
2014-6-11,79.9,66.3,60.7,69.3,61.4,58.7,93,85,67,29.11,29.02,7,1,7,0.00
2014-6-12,77.0,67.6,56.7,68.8,61.4,52.0,93,81,66,29.24,29.09,5,1,5,0.00
2014-6-13,91.3,65.0,50.9,59.6,50.7,45.6,88,63,34,29.39,29.24,6,1,6,0.00
2014-6-14,86.6,68.5,52.9,60.0,53.8,47.7,85,62,38,29.38,29.17,11,3,11,0.00
2014-6-15,94.0,74.8,61.0,72.8,62.6,53.0,79,67,47,29.29,29.04,17,3,17,0.00
2014-6-16,96.1,79.2,64.1,78.5,70.0,60.5,91,74,56,29.36,29.12,10,2,10,0.00
2014-6-17,97.0,82.3,67.7,78.7,71.8,62.6,86,71,53,29.29,29.13,9,2,9,0.05
2014-6-18,100.3,84.3,71.8,81.1,73.9,67.6,88,72,50,29.25,29.17,8,2,8,0.00
2014-6-19,97.2,83.7,70.9,80.3,72.9,66.2,89,72,53,29.34,29.22,8,2,8,0.38
2014-6-20,99.7,79.0,68.0,76.3,69.0,63.6,92,74,42,29.31,29.24,6,1,6,0.02
2014-6-21,94.7,78.8,67.3,79.3,69.5,62.9,91,74,54,29.27,29.16,9,1,9,0.00
2014-6-22,93.4,74.3,64.3,78.4,67.6,61.0,92,81,61,29.22,29.16,7,1,7,0.26